FW0696 Weather Reports


time (UTC)temp
C
wind
direction
speed
KPH
gust
KPH
rain 1hr
cm
rain 24hr
cm
rain mn
cm
humidity
%
barometer
mb
20260510153006 2 324 0.0 1.6 0.00 0.00 0.00 88 1017.0
20260510151516 2 338 0.0 1.6 0.00 0.00 0.00 87 1016.9
20260510150003 2 1 0.0 3.2 0.00 0.00 0.00 87 1016.7
20260510144502 2 3 0.0 1.6 0.00 0.00 0.00 87 1016.6
20260510143100 2 39 0.0 3.2 0.00 0.00 0.00 86 1016.4
20260510141603 2 320 1.6 8.0 0.00 0.00 0.00 85 1016.3
20260510140059 2 12 0.0 8.0 0.00 0.00 0.00 85 1016.2
20260510134605 2 33 0.0 8.0 0.00 0.00 0.00 84 1015.9
20260510133151 2 340 0.0 4.8 0.00 0.00 0.00 84 1015.5
20260510131549 2 347 1.6 9.7 0.00 0.00 0.00 84 1015.2
20260510130048 2 3 0.0 8.0 0.00 0.00 0.00 83 1015.0
20260510124545 2 47 4.8 9.7 0.00 0.00 0.00 82 1014.9
20260510123044 2 58 4.8 17.7 0.00 0.00 0.00 82 1014.8
20260510121542 2 344 4.8 11.3 0.00 0.00 0.00 82 1014.5
20260510120036 2 340 1.6 14.5 0.00 0.00 0.00 81 1014.1
20260510114559 2 39 4.8 12.9 0.00 0.00 0.00 82 1013.9
20260510113045 2 330 0.0 6.4 0.00 0.00 0.00 84 1013.5
20260510111534 2 349 0.0 11.3 0.00 0.00 0.00 84 1013.4
20260510110035 2 331 3.2 11.3 0.00 0.00 0.00 83 1013.2
20260510104525 2 329 3.2 12.9 0.00 0.00 0.00 82 1013.0
20260510103026 2 34 3.2 19.3 0.00 0.00 0.00 82 1012.9
20260510101523 2 79 1.6 12.9 0.00 0.00 0.00 82 1012.7
20260510100030 3 345 0.0 12.9 0.00 0.00 0.00 80 1012.6
20260510094519 3 17 3.2 17.7 0.00 0.00 0.00 79 1011.7
20260510093017 3 49 1.6 17.7 0.00 0.00 0.00 80 1011.3
20260510091515 3 11 3.2 14.5 0.00 0.00 0.00 82 1011.0
20260510090012 3 26 6.4 17.7 0.00 0.00 0.00 81 1010.8
20260510084509 3 45 8.0 19.3 0.00 0.00 0.00 79 1010.2
20260510083013 3 335 6.4 12.9 0.00 0.00 0.00 79 1009.7
20260510081506 2 220 0.0 8.0 0.00 0.00 0.00 81 1010.0
20260510080004 2 46 0.0 11.3 0.00 0.00 0.00 80 1009.7
20260510074502 2 27 4.8 14.5 0.00 0.00 0.00 79 1009.2
20260510073100 2 335 8.0 20.9 0.00 0.00 0.00 78 1008.8
20260510071603 2 326 6.4 17.7 0.00 0.00 0.00 78 1008.8
20260510070107 3 330 6.4 17.7 0.00 0.00 0.00 79 1008.5
20260510064558 3 319 11.3 25.7 0.00 0.00 0.00 76 1008.1
20260510063047 3 27 0.0 16.1 0.00 0.00 0.00 76 1007.2
20260510061545 3 83 3.2 11.3 0.00 0.00 0.00 76 1006.9
20260510060042 3 359 0.0 16.1 0.00 0.00 0.00 75 1006.5
20260510054545 3 48 6.4 20.9 0.00 0.00 0.00 74 1006.3
20260510053034 4 351 1.6 14.5 0.00 0.00 0.00 75 1006.0
20260510051535 4 15 8.0 17.7 0.00 0.00 0.00 75 1005.6
20260510050035 4 18 0.0 3.2 0.00 0.00 0.00 78 1005.4
20260510044524 5 348 0.0 6.4 0.00 0.00 0.00 77 1005.1
20260510043021 5 314 0.0 4.8 0.00 0.00 0.00 74 1004.7
20260510041520 5 326 1.6 11.3 0.00 0.00 0.00 75 1004.3
20260510040018 5 31 1.6 14.5 0.00 0.00 0.00 76 1004.1
20260510034515 6 6 4.8 16.1 0.00 0.00 0.00 75 1003.7
20260510033014 5 24 1.6 16.1 0.00 0.00 0.00 77 1003.3
20260510031511 5 65 6.4 16.1 0.00 0.00 0.00 73 1002.7
20260510030008 5 72 6.4 22.5 0.00 0.00 0.00 75 1001.9
20260510024506 5 26 6.4 32.2 0.00 0.00 0.00 76 1002.0
20260510023004 5 105 3.2 19.3 0.00 0.00 0.00 76 1001.4
20260510021501 5 317 8.0 19.3 0.00 0.00 0.00 76 1001.0
20260510020059 6 340 9.7 29.0 0.00 0.00 0.00 74 1000.5
20260510014607 6 345 8.0 20.9 0.00 0.00 0.00 78 1000.4
20260510013053 6 310 12.9 25.7 0.00 0.00 0.00 74 1000.2
20260510011557 7 329 8.0 19.3 0.00 0.00 0.00 74 999.8
20260510010059 7 32 3.2 14.5 0.00 0.00 0.00 77 1000.0
20260510004554 7 85 6.4 14.5 0.00 0.00 0.00 73 999.6
20260510003055 7 355 4.8 12.9 0.00 0.00 0.00 74 999.2
20260510001546 8 38 1.6 14.5 0.00 0.00 0.00 74 999.1
20260510000050 8 21 1.6 16.1 0.00 0.00 0.00 75 998.9
20260509234553 8 86 4.8 16.1 0.00 0.00 0.00 73 998.6
20260509233041 8 340 1.6 8.0 0.00 0.00 0.00 76 998.5
20260509231541 7 50 3.2 8.0 0.00 0.00 0.00 77 998.8
20260509230040 7 316 3.2 14.5 0.00 0.00 0.00 78 998.8
20260509224538 6 29 0.0 11.3 0.00 0.00 0.00 81 998.4
20260509223045 6 319 4.8 12.9 0.00 0.00 0.00 81 998.2
20260509221537 6 331 1.6 9.7 0.00 0.00 0.00 83 998.1
20260509220043 5 339 0.0 6.4 0.00 0.00 0.00 85 997.9
20260509214539 5 103 1.6 12.9 0.00 0.00 0.00 87 997.8
20260509213037 5 53 3.2 11.3 0.00 0.00 0.00 87 997.7
20260509211529 5 64 1.6 16.1 0.00 0.00 0.00 87 997.4
20260509210025 5 322 3.2 12.9 0.00 0.00 0.00 88 997.0
20260509204528 5 323 1.6 11.3 0.00 0.00 0.00 90 996.6
20260509203020 5 73 3.2 12.9 0.00 0.00 0.00 90 996.3
20260509201518 5 48 0.0 6.4 0.00 0.00 0.00 90 995.9
20260509200016 5 1 0.0 3.2 0.00 0.00 0.00 90 995.7
20260509194512 6 17 0.0 3.2 0.00 0.00 0.00 90 995.5
20260509193011 5 86 0.0 1.6 0.00 0.00 0.00 88 995.1
20260509191508 6 113 0.0 3.2 0.00 0.00 0.00 87 994.4
20260509190007 6 8 0.0 1.6 0.00 0.00 0.00 84 994.3
20260509184504 6 348 0.0 3.2 0.00 0.00 0.00 82 994.1
20260509183003 6 8 0.0 1.6 0.00 0.00 0.00 82 993.7
20260509181502 6 134 0.0 4.8 0.00 0.00 0.00 84 993.7
20260509180100 6 21 0.0 0.0 0.00 0.08 0.00 82 993.1
20260509174604 6 18 0.0 0.0 0.00 0.08 0.00 78 992.5
20260509173107 7 137 0.0 3.2 0.00 0.08 0.00 78 992.2
20260509171555 7 89 0.0 0.0 0.00 0.08 0.00 80 992.0
20260509170049 7 87 0.0 0.0 0.00 0.10 0.00 80 992.0
20260509164547 8 88 0.0 0.0 0.00 0.10 0.00 77 991.8
20260509163046 8 88 0.0 0.0 0.00 0.10 0.00 75 991.9
20260509161542 8 87 0.0 0.0 0.00 0.10 0.00 73 991.6
20260509160040 8 7 0.0 1.6 0.00 0.13 0.00 72 991.5
20260509154537 10 6 0.0 1.6 0.00 0.13 0.00 67 991.5